Location: Niagara
(43.2500°N, 79.0670°W)
Time: 00:06:28
(UTC-04:00)

Vanguard 1 - All Passes

Search period start: 19 July 2018 00:00
Search period end: 29 July 2018 00:00
Orbit: 650 x 3833 km, 34.2° (Epoch: 18 July)

Date Brightness Start Highest point End Pass type
(mag) Time Alt. Az. Time Alt. Az. Time Alt. Az.
19 Jul - 01:26:03 10° SW 01:30:01 26° S 01:33:47 10° ESE night (unlit)
19 Jul - 03:45:43 10° WSW 03:49:22 24° S 03:53:50 10° SE visible
19 Jul - 06:07:14 10° SW 06:09:19 12° SSW 06:11:41 10° S daylight
19 Jul - 23:27:12 10° SSW 23:31:17 19° SSE 23:34:36 10° ESE visible
20 Jul - 01:46:46 10° WSW 01:50:45 28° S 01:54:37 10° ESE night (unlit)
20 Jul - 04:06:46 10° WSW 04:10:09 20° SSW 04:14:13 10° SSE visible
20 Jul - 21:30:45 10° SSE 21:31:58 10° SSE 21:33:07 10° SSE visible
20 Jul - 23:47:27 10° SW 23:52:05 23° S 23:55:45 10° ESE visible
21 Jul - 02:07:35 10° WSW 02:11:29 27° S 02:15:22 10° SE visible
21 Jul - 04:28:08 10° SW 04:30:56 15° SSW 04:34:12 10° SSE visible
21 Jul - 21:48:39 10° SSW 21:52:54 15° SSE 21:56:15 10° SE visible
22 Jul - 00:08:00 10° SW 00:12:52 27° S 00:16:42 10° ESE visible
22 Jul - 02:28:30 10° WSW 02:32:13 25° S 02:36:00 10° SE visible
22 Jul - 04:50:22 10° SW 04:51:43 11° SSW 04:53:10 10° S visible
22 Jul - 22:08:16 10° SSW 22:13:48 20° SSE 22:17:51 10° ESE visible
23 Jul - 00:28:44 10° WSW 00:33:38 29° S 00:37:33 10° ESE visible
23 Jul - 02:49:33 10° WSW 02:52:56 21° SSW 02:56:27 10° SE visible
23 Jul - 20:10:58 10° S 20:13:58 12° SSE 20:16:34 10° SE daylight
23 Jul - 22:28:25 10° SW 22:34:40 25° SSE 22:39:03 10° ESE visible
24 Jul - 00:49:35 10° WSW 00:54:23 30° S 00:58:17 10° ESE visible
24 Jul - 03:10:48 10° WSW 03:13:38 16° SSW 03:16:36 10° SSE visible
24 Jul - 20:28:58 10° SSW 20:34:59 17° SSE 20:39:28 10° ESE daylight
24 Jul - 22:48:56 10° SW 22:55:31 29° S 23:00:02 10° ESE visible
25 Jul - 01:10:32 10° WSW 01:15:07 28° S 01:18:57 10° SE visible
25 Jul - 03:32:37 10° SW 03:34:19 12° SSW 03:36:06 10° S night (unlit)
25 Jul - 20:48:22 10° SSW 20:55:57 22° SSE 21:01:10 10° ESE daylight
25 Jul - 23:09:40 10° WSW 23:16:22 33° S 23:20:53 10° ESE visible
26 Jul - 01:31:35 10° WSW 01:35:49 25° SSW 01:39:28 10° SE visible
26 Jul - 18:51:00 10° S 18:55:30 12° SSE 18:59:16 10° SE daylight
26 Jul - 21:08:24 10° SW 21:16:55 27° SSE 21:22:26 10° ESE visible
26 Jul - 23:30:34 10° WSW 23:37:10 35° S 23:41:39 10° ESE visible
27 Jul - 01:52:44 10° WSW 01:56:29 21° SSW 01:59:49 10° SSE night (unlit)
27 Jul - 19:08:37 10° S 19:16:35 18° SSE 19:22:24 10° ESE daylight
27 Jul - 21:28:50 10° SW 21:37:51 32° S 21:43:28 10° ESE visible
27 Jul - 23:51:34 10° WSW 23:57:56 35° S 00:02:21 10° ESE visible
28 Jul - 02:14:10 10° WSW 02:17:06 16° SSW 02:19:48 10° SSE night (unlit)
28 Jul - 19:27:43 10° SSW 19:37:38 23° SSE 19:44:16 10° ESE daylight
28 Jul - 21:49:32 10° SW 21:58:45 37° S 22:04:22 10° ESE visible
